Marathon, FL (33050)

8:40 AM EDT on August 23, 2017 (GMT -0400)
Little Venice House Rooftop | | Change Station

Elev 8 ft 24.73 °N, 81.03 °W | Updated 5 seconds ago

Partly Cloudy
Partly Cloudy
83.9 °F
Feels Like 94 °F
N
0.0
Wind Variable Wind from ENE
Gusts 2.0 mph

Today
High -- | Low -- °F
--% Chance of Precip.
Yesterday
High -- | Low -- °F
Precip. -- in
Pressure 29.91 in
Visibility 10.0 miles
Clouds Scattered Clouds 2500 ft
Scattered Clouds 14000 ft
Mostly Cloudy 22000 ft
Heat Index 94 °F
Dew Point 78 °F
Humidity 82%
Rainfall 0.32 in
Snow Depth Not available.
7:01 AM 7:51 PM
Waxing Crescent, 4% visible
METAR KNQX 231153Z 14004KT 10SM SCT025 SCT140 BKN220 28/27 A2991 RMK AO2 SLP128 70030 T02780272 10278 20261 53007 $
Pressure 29.91 in
Visibility 10.0 miles
Clouds Scattered Clouds 2500 ft
Scattered Clouds 14000 ft
Mostly Cloudy 22000 ft
Heat Index 94 °F
Dew Point 78 °F
Humidity 82%
Rainfall 0.32 in
Snow Depth Not available.
7:01 AM 7:51 PM
Waxing Crescent, 4% visible
METAR KNQX 231153Z 14004KT 10SM SCT025 SCT140 BKN220 28/27 A2991 RMK AO2 SLP128 70030 T02780272 10278 20261 53007 $

Get Severe Weather Alerts

Thanks for signing up!

Be on the lookout for a verification email in your inbox.

You'll start receiving the daily forecast at 6 AM.

×

10-Day Weather Forecast

Almanac

Astronomy

Aug. 23, 2017 Rise Set
Actual Time
Civil Twilight
Nautical Twilight
Astronomical Twilight
Moon
Length of Visible Light
Length of Day
Tomorrow will be .
, % of the Moon is Illuminated

Today's Extremes

State Highs State Lows

Community

WunderPhotos

Category 6

Welcome to Category 6. This is the collective home for Weather Underground's featured writeups by Dr. Jeff Masters (right), Bob Henson (left), Chris Burt, and other regular contributors.

Nearby

Air Quality

  Air Quality AQ Index Pollutant
Not available.

Snow Depth

Station Depth Elevation

Earthquake Activity

City Distance Mag. Time & Date
Minimum magnitude displayed is 2.5.

Coastal Water Temperatures

Place Temperature

Stations

Nearby Weather Stations

Station Location Temp. Windchill Dew Point Humidity Wind Precip. Elev Updated Type
                   

Watches & Warnings

There are currently no watches in effect.